Location: North Mitre
(40.7833°S, 175.4667°E)
Time: 03:05:42
(UTC+00:00)

USA 306 - Pass Details

Date: 04 August 2024
Orbit: 496 x 519 km, 54.0° (Epoch: 15 February)

Event Time Altitude Azimuth Distance (km) Brightness Sun altitude
Exits shadow 18:28:59 14° 270° (W) 1,329 4.2 -10.1°
Maximum altitude 18:30:55 21° 311° (NW) 1,088 4.0 -9.7°
Drops below altitude 10° 18:33:48 10° 0° (N) 1,654 5.5 -9.2°
Sets 18:36:25 0° 16° (NNE) 2,562 6.7 -8.7°
